Location: Lawrence Hall of Science
(37.8785°N, 122.2415°W)
Time: 10:55:01
(UTC-08:00)

Daily predictions for brighter satellites

Satellite Brightness Start Highest point End
(mag) Time Altitude Azimuth Time Altitude Azimuth Time Altitude Azimuth
Meteor 1-18 Rocket 4.2 17:07:00 10° S 17:12:32 78° E 17:18:11 10° NNE
Cosmos 1975 Rocket 3.1 17:12:53 10° S 17:17:18 68° E 17:21:46 10° NNE
Cosmos 2150 Rocket 4.1 17:12:26 10° S 17:17:50 70° ESE 17:23:16 10° NNE
Centaur D AC-28 4.1 17:16:01 10° WSW 17:20:25 41° SSE 17:37:51 10° ESE
SJ 16-02 3.0 17:19:00 10° SE 17:21:41 16° E 17:24:23 10° ENE
USA 161 3.5 17:21:02 10° NNW 17:23:34 29° WNW 17:26:13 10° SW
Okean 1 Rocket 4.1 17:22:00 10° NNW 17:26:22 52° W 17:30:43 10° S
ATLAS 2AS CENTAUR R/B 3.1 17:21:15 10° SSW 17:28:53 79° ESE 17:37:01 10° NE
Hubble Space Telescope 2.8 17:26:04 10° SW 17:29:17 22° S 17:32:29 10° SE
IRAS Rocket 4.2 17:24:28 10° SSE 17:29:57 80° ENE 17:35:27 10° NNW
CSL-04 Debris 4.1 17:31:22 10° SSE 17:36:45 81° ENE 17:42:09 10° NNW
Cosmos 2369 4.4 17:33:15 10° SSE 17:38:15 33° ESE 17:43:17 10° NE
ATLAS 3B R/B 3.1 17:32:16 10° NNW 17:38:24 37° NE 17:44:21 10° ESE
Cosmos 2278 4.5 17:35:04 10° SSE 17:40:02 33° ESE 17:45:03 10° NE
Meteor 1-19 Rocket 4.3 17:37:21 10° S 17:42:54 62° E 17:48:34 10° NNE
USA 215 3.5 17:38:40 10° SE 17:45:13 77° SW 17:51:46 10° NW
Cosmos 1536 Rocket 4.0 17:41:28 10° SSE 17:45:31 39° E 17:49:33 10° NNE
EO 1 Del DPAF 4.2 17:43:09 11° NE 17:46:19 27° E 17:49:35 10° SSE
Meteor 1-28 Rocket 3.2 17:42:52 10° N 17:46:39 87° W 17:50:24 10° SSW
Cosmos 1743 2.6 17:47:42 10° N 17:51:35 77° E 17:55:27 10° S
Cosmos 389 Rocket 2.5 17:49:57 10° N 17:53:26 82° W 17:56:52 10° S
CSL-04 Rocket 4.4 17:52:38 10° S 17:57:56 58° W 18:03:21 10° NNW
SKYMED 2 3.7 17:53:58 10° NNE 17:58:13 51° E 18:02:26 10° S
Ariane Rocket 3.5 17:54:09 10° S 17:59:10 63° WSW 18:04:12 10° NNW
Cosmos 1655 Rocket 4.2 17:52:49 10° N 17:59:12 78° W 18:05:35 10° S
MOS 1 4.4 17:55:09 10° SE 18:00:37 51° ENE 18:06:06 10° N
FENGYUN 3A 4.1 17:56:13 10° SE 18:01:09 38° ENE 18:06:04 10° N
CZ-2C R/B 3.9 17:59:17 10° N 18:03:58 78° WNW 18:08:41 10° SSW
Cosmos 1697 Rocket 3.4 18:00:21 10° SSE 18:05:16 32° ESE 18:07:58 21° ENE
SMAP 4.0 18:01:49 10° S 18:06:20 52° W 18:10:53 10° NNW
Cosmos 1125 Rocket 3.5 18:04:09 10° S 18:09:22 62° ESE 18:13:57 14° NNE
METEOR-M 4.0 18:04:06 10° SSE 18:09:25 76° ENE 18:14:46 10° N
NOAA 12 4.3 18:04:45 10° SE 18:09:44 44° ENE 18:14:43 10° N
NOSS 8 (A) 4.2 18:07:38 10° SSW 18:11:01 73° ESE 18:12:20 32° NE
Landsat 4 3.8 18:08:53 10° N 18:12:42 81° WNW 18:16:31 10° SSW
Cosmos 2082 3.9 18:07:45 10° N 18:13:10 46° ENE 18:18:32 10° SE
Cosmos 2266 Rocket 3.9 18:07:16 10° N 18:13:18 64° E 18:19:24 10° SSE
IRS-1A Rocket 4.4 18:09:38 10° S 18:15:16 78° WSW 18:20:50 10° NNW
ALOS 2.3 18:13:14 10° SSE 18:17:46 54° ENE 18:22:19 10° N
Cosmos 1271 Rocket 3.6 18:15:39 10° NNW 18:19:19 49° W 18:23:01 10° S
Cosmos 1048 Rocket 4.1 18:15:35 10° N 18:20:52 52° ENE 18:26:04 10° SE
CENTAUR R/B 4.2 18:15:19 10° N 18:20:54 21° NE 18:22:01 20° NE
Atlas Centaur 2 3.1 18:17:18 10° WSW 18:21:43 30° S 18:24:25 16° SE
Cosmos 724 4.4 18:18:39 10° NNW 18:24:15 48° NE 18:28:32 17° SE
Meteor 1-23 Rocket 4.2 18:19:11 10° S 18:24:54 67° E 18:30:35 10° NNE
Cosmos 1455 Rocket 3.9 18:20:59 10° NNW 18:25:18 53° W 18:29:33 10° S
ISS -3.4 18:22:24 10° NW 18:25:19 46° NNE 18:25:19 46° NNE
DELTA 2 R/B (1) 3.6 18:20:01 10° W 18:25:36 76° N 18:28:06 34° ENE
Abrixas rocket 4.2 18:23:43 10° WNW 18:25:58 17° NNW 18:26:22 17° N
Cosmos 2227 Rocket 2.1 18:21:38 10° NNW 18:27:20 79° ENE 18:32:58 10° SSE
ERS-2 2.0 18:24:31 10° SSE 18:28:10 87° ENE 18:31:51 10° NNW
YAOGAN 1 3.4 18:26:03 10° S 18:30:16 52° W 18:34:30 10° NNW
CZ-4 R/B 3.4 18:31:08 10° SSW 18:34:28 28° W 18:37:52 10° NW
Meteor 2-9 Rocket 4.4 18:32:29 10° NNW 18:37:58 71° W 18:43:18 10° S
USA 238 DEB 3.7 18:31:51 10° NNW 18:39:01 90° ENE 18:46:13 10° SSE
USA 238 3.7 18:31:57 10° NNW 18:39:07 89° ENE 18:46:20 10° SSE
Cosmos 372 Rocket 4.1 18:34:21 10° SSW 18:39:32 72° WNW 18:43:19 19° NNE
Delta 2 Rocket 4.2 18:36:28 10° W 18:41:50 59° SSW 18:43:38 37° SE
Cosmos 1980 Rocket 2.6 18:39:36 10° S 18:44:35 39° ESE 18:44:35 39° ESE
COSMO-SKYMED 1 3.7 18:42:05 10° N 18:46:12 43° WNW 18:50:17 10° SW
PSLV R/B 4.2 18:43:57 10° W 18:46:15 41° WNW 18:46:15 41° WNW
Okean 2 3.3 18:48:09 10° S 18:51:52 71° SSE 18:51:52 71° SSE
Cosmos 2297 Rocket 2.3 18:48:49 10° NNW 18:54:28 73° WSW 19:00:05 10° SSE
SJ 16-02 2.6 18:55:49 10° SW 18:59:55 38° WNW 19:02:07 23° NNW
Okean 1-7 Rocket 4.3 18:58:09 10° S 19:01:08 43° S 19:01:08 43° S
Cosmos 1553 Rocket 4.2 18:57:14 10° SSE 19:02:36 50° ESE 19:02:36 50° ESE
Cosmos 1417 Rocket 4.3 19:00:00 10° S 19:06:01 64° E 19:06:12 64° E
NOSS 3-2 (A) 3.9 19:02:11 10° NNW 19:09:52 83° ENE 19:15:19 24° SE
Hubble Space Telescope 2.9 19:07:01 10° SW 19:09:55 18° S 19:09:55 18° S
BREEZE-M DEB (TANK) 4.4 19:10:06 10° NW 19:12:56 53° N 19:12:56 53° N
NOSS 3-2 (C) 3.9 19:07:57 10° NNW 19:15:36 71° NE 19:17:39 52° ESE
Thor Agena Rocket 3.9 19:28:03 62° SW 19:28:03 62° SW 19:32:32 10° SSW
Cosmos 1025 Rocket 4.4 19:24:11 10° SW 19:27:56 36° W 19:27:56 36° W
ATLAS 3B R/B 3.7 19:22:58 10° NW 19:29:03 40° WSW 19:35:01 10° S
NOSS 3-4 (A) 4.0 19:35:01 10° SW 19:41:04 53° NW 19:41:28 52° NW
NOSS 3-4 (C) 3.9 19:35:06 10° SW 19:41:10 54° NW 19:41:31 53° NW
Cosmos 1697 Rocket 4.1 19:44:04 10° SW 19:49:08 33° WNW 19:49:46 32° NW
CENTAUR R/B 4.1 20:05:00 10° NNW 20:09:14 36° NNW 20:09:14 36° NNW
Cosmos 1980 Rocket 4.4 20:24:06 10° WSW 20:26:25 20° W 20:26:25 20° W
